Regional Weather Roundup
Issued by NWS

Home | Current Version | Previous Version | Graphics & Text | Print | Product List | Glossary On
Versions: 1 2 3 4 5 6 7 8 9 10 11 12 13 14 15 16 17 18 19 20 21 22 23 24 25 26 27 28 29 30 31 32 33 34 35 36 37 38 39 40 41 42 43 44 45 46 47 48 49 50
000
ASUS43 KDMX 222306
RWRIA

WEATHER ROUNDUP FOR IOWA
NATIONAL WEATHER SERVICE DES MOINES IA
600 PM CDT THU JUN 22 2017

NOTE: "FAIR" INDICATES FEW OR NO CLOUDS BELOW 12,000 FEET WITH NO
SIGNIFICANT WEATHER AND/OR OBSTRUCTIONS TO VISIBILITY.

* - THESE STATIONS ARE NOT NWS STATIONS...THUS NOT UNDER NWS
QUALITY CONTROL.  THEY ALSO DO NOT REPORT WEATHER SUCH
AS PRECIPITATION OR FOG.

IAZ001>003-012>014-020>022-031>034-043>046-230000-
   NORTHWEST IOWA

CITY           SKY/WX    TMP DP  RH WIND       PRES   REMARKS
CARROLL *      CLOUDY    86  70  58 SW9       29.65S HX  90
CHEROKEE *     CLOUDY    79  69  70 N8        29.69R HX  81
DENISON *      CLOUDY    84  68  58 N12       29.66F HX  87
LE MARS *      MOSUNNY   79  66  65 N22G31    29.70R HX  81
ORANGE CITY *  PTSUNNY   72  64  78 N14G22    29.73R
SHELDON *      CLOUDY    70  63  78 N17       29.73R
SIOUX CITY     CLOUDY    82  62  50 N15       29.67S HX  83
SPENCER        CLOUDY    73  64  73 N18G25    29.72R
STORM LAKE *   CLOUDY    79  66  65 N13       29.69S HX  81
$$

IAZ055>058-069>071-079>083-090>094-230000-
   SOUTHWEST IOWA

CITY           SKY/WX    TMP DP  RH WIND       PRES   REMARKS
ATLANTIC *     PTSUNNY   86  72  62 S6        29.64F HX  92
AUDUBON *      CLOUDY    84  72  65 SW6       29.66F HX  89
CLARINDA *     SUNNY     88  70  55 S10       29.66R HX  92
COUNCIL BLFS * CLOUDY    88  70  55 SW7       29.63S HX  92
CRESTON *      PTSUNNY   86  70  58 S12G18    29.68R HX  90
HARLAN  *      CLOUDY    86  72  62 S7        29.67F HX  92
LAMONI         MOSUNNY   85  72  65 S15       29.65S HX  91
RED OAK *      MOSUNNY   88  70  55 S12       29.63F HX  92
SHENANDOAH *   PTSUNNY   86  72  62 S7        29.64S HX  92
$$

IAZ047>049-059>061-072>074-084-230000-
   CENTRAL IOWA

CITY           SKY/WX    TMP DP  RH WIND       PRES   REMARKS
AMES           SUNNY     86  66  51 SW12      29.65S HX  88
ANKENY *       CLOUDY    86  70  58 SW8G15    29.65S HX  90
BOONE *        PTSUNNY   84  66  54 SW8       29.65S HX  86
CHARITON *     MOSUNNY   86  70  58 S17       29.65S HX  90
DES MOINES     CLOUDY    87  69  54 S13       29.64F HX  91
GRINNELL*      CLOUDY    85  69  60 S10       29.67S HX  88
KNOXVILLE *    PTSUNNY   84  70  61 S12G18    29.64S HX  88
MARSHALLTOWN   CLOUDY    84  72  67 S9        29.65S HX  89
NEWTON *       MOSUNNY   84  72  65 SW12      29.65S HX  89
PELLA *        MOSUNNY   86  69  55 S8        29.66S HX  90
PERRY *        PTSUNNY   87  65  48 SW12      29.65S HX  88
$$

IAZ004>006-015-016-023>025-035-036-230000-
   NORTH CENTRAL IOWA

CITY           SKY/WX    TMP DP  RH WIND       PRES   REMARKS
ALGONA *       CLOUDY    77  72  83 N10       29.69F
CLARION *        N/A     77  75  94 NE10      29.67F
ESTHERVILLE    CLOUDY    69  65  86 N17       29.72R
FORT DODGE *   MOSUNNY   82  70  65 NE7       29.67S HX  86
MASON CITY     CLOUDY    74  68  81 E8        29.70F
FOREST CITY *  CLOUDY    75  63  64 NE3       29.69S
WEBSTER CITY * CLOUDY    84  70  61 S10       29.64S HX  88
IOWA FALLS *     N/A     86  68  55 S9        29.68S HX  89
$$

IAZ007>011-017>019-026>030-037>042-050>054-066-230000-
   NORTHEAST IOWA

CITY           SKY/WX    TMP DP  RH WIND       PRES   REMARKS
CEDAR RAPIDS   CLOUDY    83  72  69 S5        29.65F HX  88
CHARLES CITY * MOSUNNY   79  75  89 E6        29.68F HX  82
CLINTON *      PTSUNNY   83  71  67 SW14      29.69R HX  87
DECORAH *      LGT RAIN  70  68  94 NE7       29.70F
DUBUQUE        CLOUDY    82  69  64 SW8       29.70F HX  85
MONTICELLO *   MOSUNNY   82  72  69 S5        29.67F HX  87
OELWEIN *      PTSUNNY   79  73  83 E3        29.69F HX  82
WATERLOO       CLOUDY    83  69  62 CALM      29.65F HX  86
$$

IAZ064-065-067-068-078-230000-
   EAST CENTRAL IOWA

CITY           SKY/WX    TMP DP  RH WIND       PRES   REMARKS
DAVENPORT      MOSUNNY   82  69  64 S21G31    29.67F HX  85
IOWA CITY      MOSUNNY   85  71  63 S10       29.66F HX  90
MT. PLEASANT * MOSUNNY   83  68  61 S12G18    29.67F HX  86
MUSCATINE *    MOSUNNY   84  70  61 S15G24    29.66S HX  88
QUAD CITIES    MOSUNNY   85  71  63 S17G30    29.65F HX  90
$$

IAZ062-063-075>077-085>089-095>099-230000-
   SOUTHEAST IOWA

CITY           SKY/WX    TMP DP  RH WIND       PRES   REMARKS
BURLINGTON     MOSUNNY   83  73  72 S18       29.68F HX  89
FAIRFIELD *    CLOUDY    84  70  61 S16G22    29.65S HX  88
FORT MADISON * SUNNY     84  72  65 S14G20    29.69F HX  89
KEOKUK *       SUNNY     84  72  65 S15       29.68F HX  89
OSKALOOSA *    LGT RAIN  81  72  75 W5G17     29.67R HX  85
CENTERVILLE *    N/A     84  72  65 SE15      29.68F HX  89
OTTUMWA        LGT RAIN  84  72  67 S16G23    29.63R HX  89
WASHINGTON *   CLOUDY    82  72  69 S15G21    29.66F HX  87
$$

ABBREVIATIONS USED IN REMARKS
   TC - TEMPERATURES IN CELSIUS
  WCI - WIND CHILL INDEX
   HX - HEAT INDEX
  VSB - VISIBILITY
$$





USA.gov is the U.S. government's official web portal to all federal, state and local government web resources and services.